www.pogodaiklimat.ru

Погода и климат >> Архив погоды >> Оман >> Khasab Airport


ПОГОДА в Khasab Airport

  • Прогноз погоды в Khasab Airport
  • Монитор погоды в Khasab Airport
  • Климат города

АРХИВ ПОГОДЫ в Khasab Airport

Время (UTC), дата Ветер
(напр.,м/с)
 
Видим.   Явления Облачность Т
(С)
Тd
(С)
f
(%)
Тe
(С)
Тes
(С)
Комфортность P
(гПа)
Po
(гПа)
Тmin
(С)
Tmax
(С)
R
(мм)
R24
(мм)
S
(см)
00 14.09 С 4 9000 м дымка ясно +31.3 +27.7 81 +51 +51 опасность
перегрева
1001.8 998.4
03 14.09 ЮЗ 2 8000 м мгла ясно +30.6 +27.5 84 +49 +50 опасность
перегрева
1003.1 999.7
06 14.09 нст 3 7000 м мгла ясно +38.6 +21.7 38 +46 +57 опасность
перегрева
1003.7 1000.4 +30.4
09 14.09 нст 6 9000 м мгла ясно +45.1 +2.1 7 +42 +49 опасность
перегрева
1002.1 998.9
12 14.09 нст 5 10 км ясно +45.2 -0.0 6 +41 +45 опасность
перегрева
1000.9 997.7
15 14.09 СВ 3 10 км ясно +40.4 +6.6 13 +41 +41 опасность
перегрева
1001.5 998.2
18 14.09 нст 1 10 км ясно +37.7 +14.1 25 +38 +38 очень
жарко
1003.3 1000.0 +45.8
21 14.09 нст 1 10 км 5/0
[]
+35.2 +14.9 30 +37 +37 очень
душно
1003.5 1000.1
00 15.09 Ю 5 10 км ясно +33.9 +19.9 44 +40 +40 очень
душно
1002.8 999.4
03 15.09 Ю 5 20 км ясно +35.0 +17.2 35 +38 +39 очень
душно
1003.8 1000.4
06 15.09 нст 4 10 км ясно +39.5 +15.0 24 +41 +50 опасность
перегрева
1005.5 1002.2 +33.3
09 15.09 СВ 6 10 км ясно +40.8 +14.0 21 +41 +48 опасность
перегрева
1004.3 1001.0
12 15.09 С 5 10 км ясно +39.4 +19.6 32 +44 +47 опасность
перегрева
1003.2 999.9
15 15.09 нст 1 10 км ясно +38.8 +18.6 31 +43 +43 опасность
перегрева
1003.5 1000.2
18 15.09 С 2 10 км ясно +37.0 +17.5 32 +40 +40 очень
душно
1004.9 1001.6 +41.9
21 15.09 Ю 5 20 км ясно +34.0 +21.7 49 +42 +42 опасность
перегрева
1004.8 1001.4
00 16.09 Ю 5 20 км ясно +32.4 +22.7 57 +42 +42 опасность
перегрева
1003.8 1000.4
03 16.09 Ю 6 10 км ясно +31.3 +23.8 64 +42 +43 опасность
перегрева
1005.1 1001.7
06 16.09 нст 2 10 км ясно +35.7 +22.6 47 +45 +58 опасность
перегрева
1006.6 1003.2 +31.2
09 16.09 нст 3 10 км ясно +37.0 +23.8 47 +48 +62 опасность
перегрева
1004.7 1001.4
12 16.09 СВ 4 10 км ясно +37.1 +23.9 47 +48 +52 опасность
перегрева
1003.0 999.7
15 16.09 С 3 10 км ясно +36.0 +22.9 47 +46 +46 опасность
перегрева
1003.3 1000.0
18 16.09 Ю 4 10 км ясно +34.3 +23.0 52 +44 +44 опасность
перегрева
1004.2 1000.8 +37.8
21 16.09 нст 5 20 км ясно +32.4 +24.1 62 +45 +45 опасность
перегрева
1003.6 1000.2
00 17.09 Ю 5 10 км ясно +30.9 +24.5 69 +44 +44 опасность
перегрева
1002.7 999.3
03 17.09 ЮВ 6 10 км ясно +31.0 +23.8 66 +43 +43 опасность
перегрева
1004.3 1000.9
06 17.09 ЮВ 4 10 км ясно +34.4 +22.7 51 +44 +52 опасность
перегрева
1005.8 1002.4 +30.5
09 17.09 СВ 3 10 км ясно +36.3 +23.8 49 +48 +62 опасность
перегрева
1004.1 1000.8
12 17.09 С 5 20 км ясно +36.2 +23.1 47 +46 +49 опасность
перегрева
1003.0 999.7
15 17.09 С 3 20 км 10/0
[]
+35.8 +22.3 46 +45 +45 опасность
перегрева
1003.2 999.9
18 17.09 нст 3 20 км ясно +33.6 +22.6 53 +43 +43 опасность
перегрева
1004.8 1001.4 +37.3
21 17.09 Ю 4 20 км ясно +32.6 +22.6 56 +42 +42 опасность
перегрева
1004.4 1001.0
00 18.09 ЮВ 6 20 км ясно +31.3 +23.8 64 +42 +42 опасность
перегрева
1004.1 1000.7
03 18.09 ЮВ 5 10 км ясно +30.8 +24.1 68 +43 +43 опасность
перегрева
1006.0 1002.6
06 18.09 нст 4 20 км ясно +34.1 +23.4 54 +45 +53 опасность
перегрева
1007.5 1004.1 +30.6
09 18.09 С 7 20 км ясно +36.9 +23.3 46 +47 +53 опасность
перегрева
1005.4 1002.1
12 18.09 С 6 10 км ясно +36.6 +21.9 43 +45 +47 опасность
перегрева
1004.1 1000.8
15 18.09 СВ 4 10 км ясно +35.1 +22.0 47 +44 +44 опасность
перегрева
1004.5 1001.1
18 18.09 Ю 3 10 км ясно +34.7 +23.3 52 +45 +45 опасность
перегрева
1006.2 1002.8 +38.4
21 18.09 Ю 3 20 км ясно +33.3 +22.7 54 +43 +43 опасность
перегрева
1005.7 1002.3
00 19.09 Ю 4 20 км ясно +32.6 +22.0 54 +41 +41 опасность
перегрева
1005.3 1001.9
03 19.09 Ю 6 10 км ясно +31.0 +23.6 65 +42 +42 опасность
перегрева
1006.9 1003.5
06 19.09 нст 4 10 км ясно +34.9 +22.2 48 +44 +52 опасность
перегрева
1008.0 1004.6 +30.8
09 19.09 нст 4 10 км ясно +38.6 +16.1 27 +41 +53 опасность
перегрева
1006.0 1002.7
12 19.09 нст 4 10 км ясно +39.1 +13.3 22 +39 +43 очень
жарко
1004.4 1001.1
15 19.09 нст 5 10 км 10/0
[]
+38.1 +11.0 20 +37 +37 очень
жарко
1004.4 1001.1
18 19.09 нст 1 10 км ясно +36.9 +10.7 21 +36 +36 очень
жарко
1004.5 1001.2 +39.9
21 19.09 С 6 20 км 5/0
[]
+33.0 +22.4 54 +42 +42 опасность
перегрева
1004.6 1001.2
00 20.09 С 3 20 км ясно +31.8 +22.2 57 +41 +41 опасность
перегрева
1004.2 1000.8
03 20.09 нст 2 10 км ясно +31.8 +22.2 57 +41 +41 опасность
перегрева
1005.6 1002.2
06 20.09 нст 3 10 км ясно +35.6 +20.3 41 +42 +53 опасность
перегрева
1006.7 1003.3 +30.9
09 20.09 С 7 10 км ясно +36.9 +18.4 34 +41 +46 опасность
перегрева
1005.4 1002.1
12 20.09 С 6 10 км ясно +36.6 +21.2 41 +44 +46 опасность
перегрева
1003.9 1000.6
15 20.09 С 4 10 км ясно +34.5 +21.1 46 +42 +42 опасность
перегрева
1004.3 1000.9
18 20.09 СВ 3 10 км ясно +33.2 +24.0 59 +45 +45 опасность
перегрева
1005.7 1002.3 +38.0
21 20.09 нст 1 10 км ясно +32.1 +23.3 60 +43 +43 опасность
перегрева
1005.0 1001.6

 

Местоположение метеостанции Khasab Airport (Оман): широта 26.17 долгота 56.23 высота над уровнем моря 3 м.

В архиве по умолчанию представлена погода в Khasab Airport за последнюю неделю. Архивные данные за месяц целиком и за предыдущие месяцы, начиная с января 2011 года, Вы можете получить, выбрав интересующий диапазон дат из раскрывающегося списка и нажав кнопку "Ввод!".


*Определитесь, кто Вы:
робот инопланетянин человек

Внимание! Время в таблицах - всемирное. Для получения местного времени необходимо прибавить поправку, которая в Khasab Airport равна 4 ч.

Смотрите также архив погоды в соседних городах и на ближайших метеорологических станциях:

Погода в Khasab (Оман) (5 км)
Погода в Diba (Оман) (61 км)
Погода в Ras Al Khaimah Int Airport (ОАЭ) (68 км)
Погода в Sharjah (ОАЭ) (117 км)
Погода в Bandarabbass (Иран) (118 км)
Погода в Fujairah (ОАЭ) (119 км)
Погода в Dubai (ОАЭ) (136 км)
Погода в Abu Musa Island (Иран) (145 км)
Погода в Bandar Lengeh (Иран) (147 км)
Погода в Jask (Иран) (165 км)

Пояснения к столбцам:

Ветер - указаны скорость ветра в м/с - средняя за 10 мин, порывы в срок и между сроками (в фигурных скобках) и направление, откуда дует ветер: С - северный, СВ - северо-восточный, В - восточный, ЮВ - юго-восточный, Ю - южный, ЮЗ - юго-западный, З - западный, СЗ - северо-западный.
Видимость - горизонтальная дальность видимости в метрах или километрах. При видимости от 1 до 10 км при отсутствии осадков обычно наблюдается дымка, при ухудшении видимости до 1 км и менее - туман. В сухую погоду видимость может ухудшаться дымом, пылью или мглою.
Явления - указаны атмосферные явления, наблюдавшиеся в срок или в последний час перед сроком; фигурными скобками обозначены явления, наблюдавшиеся между сроками (за 1-3 часа до срока); квадратными скобками обозначены град или гололедные отложения с указанием их диаметра в мм.
Облачность - указаны через наклонную черту общая и нижняя облачность в баллах и высота нижней границы облаков в метрах; квадратными скобками обозначены формы облаков: Ci - перистые, Cs - перисто-слоистые, Cc - перисто-кучевые, Ac - высококучевые, As - высокослоистые, Sc - слоисто-кучевые, Ns - слоисто-дождевые, Cu - кучевые, Cb - кучево-дождевые. Подробнее классификацию облаков см. в Атласе облаков (PDF).
T - Температура воздуха - температура, измеренная на высоте 2 м над землей.
Td - Температура точки росы - температура, при понижении до которой содержащийся в воздухе водяной пар достигнет насыщения.
f - Относительная влажность воздуха - влажноcть воздуха, измеренная на высоте 2 м над землей.
Te - Эффективная температура - температура, которую ощущает одетый по сезону человек в тени. Характеристика душности погоды. При расчете учитывается влияние влажности воздуха и скорости ветра на теплоощущения человека.
Tes - Эффективная температура на солнце - температура, которую ощущает человек, с поправкой на солнечный нагрев. Характеристика знойности погоды. Зависит от высоты солнца над горизонтом, облачности и скорости ветра. Ночью, в пасмурную погоду, а также при ветре 12 м/с и более поправка равна нулю.
P - Атмосферное давление - приведенное к уровню моря атмосферное давление.
Po - Атмосферное давление - измеренное на уровне метеостанции атмосферное давление.
Tmin - Минимальная температура - минимум температуры воздуха на высоте 2 м над землей.
Tmax - Максимальная температура - максимум температуры воздуха на высоте 2 м над землей.
R - Количество осадков - Количество выпавших осадков за период времени, мм. При наведении курсора мыши на число - период времени, за который выпало указанное количество осадков.
R24 - Количество осадков - Количество выпавших осадков за 24 часа, мм.
S - Снежный покров - Высота снежного покрова, см. При наведении курсора мыши на число - состояние снежного покрова и степень покрытия местности в баллах.